Wetterdaten: aktuell Dienstag, 21.08.2018 19:50
Datum Zeit Temp. A. Aussen2m Boden Feuchte A. Feuchte 2 Luftdruck Regen Wind Richtung Richtung Sonnenschein
21.08.2018 19:50 26,3 C 29,1 C 10,8 C 43 % 48 % 1015,6 hPa 0,0 l/m 13,9 km/h (3 Bft) N-NO 15 0 min
21.08.2018 19:45 26,3 C 29,1 C 10,8 C 43 % 48 % 1015,6 hPa 0,0 l/m 12,1 km/h (2 Bft) N 355 0 min
21.08.2018 19:40 26,5 C 29,1 C 10,8 C 43 % 48 % 1015,6 hPa 0,0 l/m 12,7 km/h (3 Bft) NO 35 0 min
21.08.2018 19:35 26,6 C 29,1 C 10,8 C 42 % 48 % 1014,5 hPa 0,0 l/m 10,3 km/h (2 Bft) O-NO 60 0 min
21.08.2018 19:30 26,6 C 29,2 C 10,8 C 43 % 48 % 1014,5 hPa 0,0 l/m 9,1 km/h (2 Bft) NO 50 0 min
21.08.2018 19:25 26,6 C 29,2 C 10,8 C 42 % 48 % 1014,5 hPa 0,0 l/m 13,3 km/h (3 Bft) NO 40 0 min
21.08.2018 19:20 26,5 C 29,2 C 10,8 C 43 % 48 % 1014,5 hPa 0,0 l/m 16,3 km/h (3 Bft) N 5 0 min
21.08.2018 19:15 26,7 C 29,2 C 10,8 C 42 % 48 % 1014,5 hPa 0,0 l/m 12,1 km/h (2 Bft) N-NO 30 0 min
21.08.2018 19:10 26,7 C 29,2 C 10,8 C 42 % 48 % 1014,5 hPa 0,0 l/m 8,5 km/h (2 Bft) N-NW 330 0 min
21.08.2018 19:05 26,7 C 29,2 C 10,8 C 42 % 48 % 1015,6 hPa 0,0 l/m 14,5 km/h (3 Bft) N-NO 20 0 min
21.08.2018 19:00 26,7 C 29,2 C 10,8 C 42 % 48 % 1015,6 hPa 0,0 l/m 12,1 km/h (2 Bft) N-NO 30 0 min
21.08.2018 18:55 26,8 C 29,2 C 10,8 C 42 % 48 % 1015,6 hPa 0,0 l/m 11,5 km/h (2 Bft) N 10 0 min
21.08.2018 18:50 26,8 C 29,2 C 10,8 C 42 % 48 % 1015,6 hPa 0,0 l/m 14,5 km/h (3 Bft) N-NO 20 0 min
21.08.2018 18:45 27,0 C 29,2 C 10,8 C 42 % 48 % 1015,6 hPa 0,0 l/m 8,5 km/h (2 Bft) NO 35 0 min
21.08.2018 18:40 26,9 C 29,2 C 10,8 C 42 % 48 % 1015,6 hPa 0,0 l/m 15,1 km/h (3 Bft) N 5 0 min
21.08.2018 18:35 27,2 C 29,1 C 10,8 C 41 % 47 % 1015,6 hPa 0,0 l/m 13,9 km/h (3 Bft) N-NO 25 0 min
21.08.2018 18:30 27,3 C 18,8 C 10,8 C 41 % 81 % 1015,7 hPa 0,0 l/m 12,1 km/h (2 Bft) NO 35 0 min
21.08.2018 18:25 27,4 C 18,8 C 10,8 C 40 % 81 % 1015,7 hPa 0,0 l/m 7,3 km/h (2 Bft) N-NO 20 0 min
21.08.2018 18:20 27,3 C 18,8 C 10,8 C 40 % 81 % 1015,7 hPa 0,0 l/m 6,7 km/h (2 Bft) NO 45 0 min
21.08.2018 18:15 27,2 C 18,8 C 10,8 C 40 % 81 % 1015,7 hPa 0,0 l/m 12,1 km/h (2 Bft) N-NW 335 0 min
21.08.2018 18:10 27,6 C 18,8 C 10,8 C 39 % 81 % 1015,7 hPa 0,0 l/m 10,3 km/h (2 Bft) NO 45 0 min
21.08.2018 18:05 27,7 C 18,8 C 10,8 C 37 % 81 % 1015,7 hPa 0,0 l/m 9,1 km/h (2 Bft) W 280 0 min
21.08.2018 18:00 27,8 C 18,8 C 10,8 C 38 % 81 % 1015,7 hPa 0,0 l/m 12,1 km/h (2 Bft) NW 310 0 min
21.08.2018 17:55 28,2 C 18,8 C 10,8 C 37 % 81 % 1015,7 hPa 0,0 l/m 7,9 km/h (2 Bft) W-NW 295 0 min
21.08.2018 17:50 28,3 C 18,8 C 10,8 C 36 % 81 % 1015,7 hPa 0,0 l/m 6,7 km/h (2 Bft) S 190 1 min
21.08.2018 17:45 28,3 C 18,8 C 10,8 C 36 % 81 % 1015,7 hPa 0,0 l/m 4,2 km/h (1 Bft) NW 315 1 min
21.08.2018 17:40 28,2 C 18,8 C 10,8 C 36 % 81 % 1015,7 hPa 0,0 l/m 5,4 km/h (2 Bft) N-NO 30 0 min
21.08.2018 17:35 28,0 C 18,8 C 10,8 C 37 % 81 % 1015,7 hPa 0,0 l/m 6,7 km/h (2 Bft) W 270 1 min
21.08.2018 17:30 27,9 C 18,8 C 10,8 C 37 % 81 % 1015,7 hPa 0,0 l/m 7,3 km/h (2 Bft) W-NW 295 1 min
21.08.2018 17:25 28,0 C 18,8 C 10,8 C 37 % 81 % 1015,7 hPa 0,0 l/m 4,8 km/h (1 Bft) W 275 0 min
21.08.2018 17:20 27,9 C 18,8 C 10,8 C 37 % 81 % 1016,7 hPa 0,0 l/m 7,3 km/h (2 Bft) S 185 4 min
21.08.2018 17:15 27,7 C 18,8 C 10,8 C 37 % 81 % 1016,7 hPa 0,0 l/m 12,1 km/h (2 Bft) S-SO 150 3 min
21.08.2018 17:10 28,1 C 18,8 C 10,8 C 37 % 81 % 1016,7 hPa 0,0 l/m 7,3 km/h (2 Bft) S 175 2 min
21.08.2018 17:05 28,2 C 18,8 C 10,8 C 36 % 81 % 1016,7 hPa 0,0 l/m 9,7 km/h (2 Bft) SO 135 4 min
21.08.2018 17:00 28,4 C 18,8 C 10,8 C 36 % 81 % 1016,7 hPa 0,0 l/m 5,4 km/h (2 Bft) SW 225 5 min
21.08.2018 16:55 28,2 C 18,8 C 10,8 C 36 % 81 % 1016,7 hPa 0,0 l/m 8,5 km/h (2 Bft) W-NW 290 5 min
21.08.2018 16:50 28,3 C 18,8 C 10,8 C 36 % 81 % 1015,7 hPa 0,0 l/m 9,1 km/h (2 Bft) W-NW 285 5 min
21.08.2018 16:45 28,4 C 18,8 C 10,8 C 36 % 81 % 1015,7 hPa 0,0 l/m 8,5 km/h (2 Bft) W-SW 245 5 min
21.08.2018 16:40 28,6 C 18,8 C 10,8 C 36 % 81 % 1015,7 hPa 0,0 l/m 9,1 km/h (2 Bft) S-SW 210 5 min
21.08.2018 16:35 29,0 C 18,8 C 10,8 C 35 % 81 % 1015,7 hPa 0,0 l/m 11,5 km/h (2 Bft) S-SW 205 5 min
21.08.2018 16:30 29,0 C 18,8 C 10,8 C 36 % 81 % 1015,7 hPa 0,0 l/m 6,7 km/h (2 Bft) W 275 6 min
21.08.2018 16:25 28,0 C 18,8 C 10,8 C 36 % 81 % 1015,7 hPa 0,0 l/m 8,5 km/h (2 Bft) SW 215 4 min
21.08.2018 16:20 28,0 C 18,8 C 10,8 C 36 % 81 % 1016,7 hPa 0,0 l/m 10,3 km/h (2 Bft) S-SO 155 5 min
21.08.2018 16:15 28,4 C 18,8 C 10,8 C 37 % 81 % 1016,7 hPa 0,0 l/m 14,5 km/h (3 Bft) S-SW 210 5 min
21.08.2018 16:10 28,3 C 18,8 C 10,8 C 37 % 81 % 1016,7 hPa 0,0 l/m 8,5 km/h (2 Bft) S 170 5 min
21.08.2018 16:05 27,7 C 18,8 C 10,8 C 37 % 81 % 1016,7 hPa 0,0 l/m 18,8 km/h (3 Bft) S-SO 155 5 min
21.08.2018 16:00 28,5 C 18,8 C 10,8 C 37 % 81 % 1016,7 hPa 0,0 l/m 10,9 km/h (2 Bft) W-SW 245 5 min
21.08.2018 15:55 28,1 C 18,8 C 10,8 C 38 % 81 % 1016,7 hPa 0,0 l/m 10,9 km/h (2 Bft) S-SO 160 6 min
21.08.2018 15:50 27,8 C 18,8 C 10,8 C 38 % 81 % 1016,7 hPa 0,0 l/m 20,0 km/h (4 Bft) N-NW 335 4 min
21.08.2018 15:45 27,9 C 18,8 C 10,8 C 38 % 81 % 1016,7 hPa 0,0 l/m 12,1 km/h (2 Bft) SW 215 6 min
21.08.2018 15:40 27,7 C 18,8 C 10,8 C 38 % 81 % 1016,7 hPa 0,0 l/m 10,9 km/h (2 Bft) S-SW 195 4 min
21.08.2018 15:35 27,7 C 18,8 C 10,8 C 38 % 81 % 1016,7 hPa 0,0 l/m 12,1 km/h (2 Bft) S 190 6 min
21.08.2018 15:30 28,0 C 18,8 C 10,8 C 38 % 81 % 1016,7 hPa 0,0 l/m 16,9 km/h (3 Bft) S-SO 160 5 min
21.08.2018 15:25 27,7 C 18,8 C 10,8 C 38 % 81 % 1016,7 hPa 0,0 l/m 8,5 km/h (2 Bft) SO 125 5 min
21.08.2018 15:20 27,6 C 18,8 C 10,8 C 38 % 81 % 1016,7 hPa 0,0 l/m 10,9 km/h (2 Bft) S-SO 150 3 min
21.08.2018 15:15 27,4 C 18,8 C 10,8 C 38 % 81 % 1016,7 hPa 0,0 l/m 13,9 km/h (3 Bft) SO 130 7 min
21.08.2018 15:10 27,5 C 18,8 C 10,8 C 38 % 81 % 1016,7 hPa 0,0 l/m 13,3 km/h (3 Bft) S-SW 200 6 min
21.08.2018 15:05 27,5 C 18,8 C 10,8 C 39 % 81 % 1016,7 hPa 0,0 l/m 17,6 km/h (3 Bft) SW 215 2 min
21.08.2018 15:00 27,4 C 18,8 C 10,8 C 39 % 81 % 1016,7 hPa 0,0 l/m 12,1 km/h (2 Bft) S-SO 165 5 min
21.08.2018 14:55 27,1 C 18,8 C 10,8 C 39 % 81 % 1016,7 hPa 0,0 l/m 14,5 km/h (3 Bft) S 190 5 min
21.08.2018 14:50 27,3 C 18,8 C 10,8 C 38 % 81 % 1016,7 hPa 0,0 l/m 10,3 km/h (2 Bft) S 170 4 min
21.08.2018 14:45 27,2 C 18,8 C 10,8 C 39 % 81 % 1016,7 hPa 0,0 l/m 11,5 km/h (2 Bft) S-SO 150 5 min
21.08.2018 14:40 26,6 C 18,8 C 10,8 C 41 % 81 % 1016,7 hPa 0,0 l/m 12,1 km/h (2 Bft) SO 130 5 min
21.08.2018 14:35 26,9 C 18,8 C 10,8 C 41 % 81 % 1017,7 hPa 0,0 l/m 9,1 km/h (2 Bft) SW 215 5 min
21.08.2018 14:30 26,5 C 18,8 C 10,8 C 42 % 81 % 1017,7 hPa 0,0 l/m 12,1 km/h (2 Bft) S 190 4 min
21.08.2018 14:25 27,4 C 18,8 C 10,8 C 41 % 81 % 1017,7 hPa 0,0 l/m 11,5 km/h (2 Bft) S-SO 150 4 min
21.08.2018 14:20 27,1 C 18,8 C 10,8 C 42 % 81 % 1017,7 hPa 0,0 l/m 11,5 km/h (2 Bft) O-SO 105 4 min
21.08.2018 14:15 27,9 C 18,8 C 10,8 C 42 % 81 % 1017,7 hPa 0,0 l/m 11,5 km/h (2 Bft) S-SO 155 5 min
21.08.2018 14:10 27,8 C 18,8 C 10,8 C 43 % 81 % 1017,7 hPa 0,0 l/m 11,5 km/h (2 Bft) N-NO 30 5 min
21.08.2018 14:05 27,4 C 18,8 C 10,8 C 44 % 81 % 1017,7 hPa 0,0 l/m 9,1 km/h (2 Bft) W-NW 290 3 min
21.08.2018 14:00 27,5 C 18,8 C 10,8 C 45 % 81 % 1017,7 hPa 0,0 l/m 12,7 km/h (3 Bft) SO 125 4 min
21.08.2018 13:55 27,8 C 18,8 C 10,8 C 45 % 81 % 1017,7 hPa 0,0 l/m 10,3 km/h (2 Bft) N-NO 30 1 min
21.08.2018 13:50 26,9 C 18,8 C 10,8 C 46 % 81 % 1017,7 hPa 0,0 l/m 9,1 km/h (2 Bft) S-SO 150 1 min
21.08.2018 13:45 26,1 C 18,8 C 10,8 C 47 % 81 % 1017,7 hPa 0,0 l/m 12,7 km/h (3 Bft) NO 55 0 min
21.08.2018 13:40 25,9 C 18,8 C 10,8 C 49 % 81 % 1017,7 hPa 0,0 l/m 9,7 km/h (2 Bft) N-NO 30 1 min
21.08.2018 13:35 25,6 C 18,8 C 10,8 C 49 % 81 % 1017,7 hPa 0,0 l/m 12,7 km/h (3 Bft) NO 35 2 min
21.08.2018 13:30 25,0 C 18,8 C 10,8 C 50 % 81 % 1017,7 hPa 0,0 l/m 8,5 km/h (2 Bft) SW 235 3 min
21.08.2018 13:25 25,5 C 18,8 C 10,8 C 49 % 81 % 1017,7 hPa 0,0 l/m 9,1 km/h (2 Bft) NO 40 1 min
21.08.2018 13:20 25,5 C 18,8 C 10,8 C 49 % 81 % 1017,7 hPa 0,0 l/m 12,1 km/h (2 Bft) N 5 2 min
21.08.2018 13:15 25,7 C 18,8 C 10,8 C 49 % 81 % 1017,7 hPa 0,0 l/m 12,7 km/h (3 Bft) N 350 1 min
21.08.2018 13:10 26,1 C 18,8 C 10,8 C 48 % 81 % 1017,7 hPa 0,0 l/m 6,7 km/h (2 Bft) N-NW 335 5 min
21.08.2018 13:05 26,3 C 18,8 C 10,8 C 49 % 81 % 1017,7 hPa 0,0 l/m 11,5 km/h (2 Bft) W 270 1 min
21.08.2018 13:00 26,2 C 18,8 C 10,8 C 49 % 81 % 1017,7 hPa 0,0 l/m 9,7 km/h (2 Bft) N-NO 20 0 min
21.08.2018 12:55 26,0 C 18,8 C 10,8 C 50 % 81 % 1017,7 hPa 0,0 l/m 9,7 km/h (2 Bft) W 275 4 min
21.08.2018 12:50 26,9 C 18,8 C 10,8 C 49 % 81 % 1017,7 hPa 0,0 l/m 7,3 km/h (2 Bft) N-NW 330 4 min
21.08.2018 12:45 26,5 C 18,8 C 10,8 C 50 % 81 % 1017,7 hPa 0,0 l/m 7,9 km/h (2 Bft) N-NO 30 5 min
21.08.2018 12:40 25,8 C 18,8 C 10,8 C 51 % 81 % 1017,7 hPa 0,0 l/m 12,1 km/h (2 Bft) N-NO 30 4 min
21.08.2018 12:35 25,5 C 18,8 C 10,8 C 51 % 81 % 1017,7 hPa 0,0 l/m 10,9 km/h (2 Bft) N-NO 25 6 min
21.08.2018 12:30 25,3 C 18,8 C 10,8 C 52 % 81 % 1017,7 hPa 0,0 l/m 4,8 km/h (1 Bft) S 190 3 min
21.08.2018 12:25 24,8 C 18,8 C 10,8 C 54 % 81 % 1017,7 hPa 0,0 l/m 8,5 km/h (2 Bft) SO 135 6 min
21.08.2018 12:20 24,5 C 18,8 C 10,8 C 55 % 81 % 1017,7 hPa 0,0 l/m 9,7 km/h (2 Bft) N-NO 15 2 min
21.08.2018 12:15 24,3 C 18,8 C 10,8 C 55 % 81 % 1017,7 hPa 0,0 l/m 8,5 km/h (2 Bft) N-NW 345 7 min
21.08.2018 12:10 24,3 C 18,8 C 10,8 C 56 % 81 % 1017,7 hPa 0,0 l/m 10,9 km/h (2 Bft) N-NO 30 3 min
21.08.2018 12:05 24,4 C 18,8 C 10,8 C 56 % 81 % 1017,7 hPa 0,0 l/m 8,5 km/h (2 Bft) NW 320 3 min
21.08.2018 12:00 24,3 C 18,8 C 10,8 C 56 % 81 % 1017,7 hPa 0,0 l/m 9,7 km/h (2 Bft) NO 45 2 min
21.08.2018 11:55 24,2 C 18,8 C 10,8 C 56 % 81 % 1017,7 hPa 0,0 l/m 4,2 km/h (1 Bft) W-SW 245 6 min
21.08.2018 11:50 23,8 C 18,8 C 10,8 C 57 % 81 % 1018,7 hPa 0,0 l/m 8,5 km/h (2 Bft) N 10 5 min
21.08.2018 11:45 23,9 C 18,8 C 10,8 C 57 % 81 % 1018,7 hPa 0,0 l/m 9,1 km/h (2 Bft) W-SW 255 3 min
21.08.2018 11:40 23,9 C 18,8 C 10,8 C 57 % 81 % 1018,7 hPa 0,0 l/m 11,5 km/h (2 Bft) W 270 5 min
21.08.2018 11:35 24,1 C 18,8 C 10,8 C 56 % 81 % 1018,7 hPa 0,0 l/m 3,6 km/h (1 Bft) NO 35 6 min
21.08.2018 11:30 23,9 C 18,8 C 10,8 C 57 % 81 % 1018,7 hPa 0,0 l/m 5,4 km/h (2 Bft) N-NO 30 4 min
21.08.2018 11:25 23,8 C 18,8 C 10,8 C 57 % 81 % 1018,7 hPa 0,0 l/m 6,7 km/h (2 Bft) NW 320 6 min
21.08.2018 11:20 23,3 C 18,8 C 10,8 C 59 % 81 % 1018,7 hPa 0,0 l/m 5,4 km/h (2 Bft) W-SW 250 4 min
21.08.2018 11:15 23,2 C 18,8 C 10,8 C 59 % 81 % 1018,7 hPa 0,0 l/m 4,8 km/h (1 Bft) S-SO 165 2 min
21.08.2018 11:10 23,1 C 18,8 C 10,8 C 59 % 81 % 1018,7 hPa 0,0 l/m 4,8 km/h (1 Bft) W 280 0 min
21.08.2018 11:05 23,0 C 18,8 C 10,8 C 60 % 81 % 1018,7 hPa 0,0 l/m 4,8 km/h (1 Bft) SW 220 0 min
21.08.2018 11:00 22,8 C 18,8 C 10,8 C 60 % 81 % 1018,7 hPa 0,0 l/m 5,4 km/h (2 Bft) S 190 0 min
21.08.2018 10:55 22,7 C 18,8 C 10,8 C 61 % 81 % 1018,7 hPa 0,0 l/m 6,1 km/h (2 Bft) SO 140 0 min
21.08.2018 10:50 22,7 C 18,8 C 10,8 C 62 % 81 % 1018,7 hPa 0,0 l/m 4,8 km/h (1 Bft) S-SO 165 0 min
21.08.2018 10:45 22,8 C 18,8 C 10,8 C 62 % 81 % 1018,7 hPa 0,0 l/m 3,0 km/h (1 Bft) W 260 0 min
21.08.2018 10:40 22,5 C 18,8 C 10,8 C 62 % 81 % 1018,7 hPa 0,0 l/m 6,1 km/h (2 Bft) S 170 0 min
21.08.2018 10:35 22,4 C 18,8 C 10,8 C 63 % 81 % 1018,7 hPa 0,0 l/m 6,7 km/h (2 Bft) S 175 0 min
21.08.2018 10:30 22,5 C 18,8 C 10,8 C 63 % 81 % 1018,7 hPa 0,0 l/m 3,6 km/h (1 Bft) S 185 0 min
21.08.2018 10:25 22,5 C 18,8 C 10,8 C 61 % 81 % 1018,7 hPa 0,0 l/m 3,6 km/h (1 Bft) S-SW 210 0 min
21.08.2018 10:20 22,6 C 18,8 C 10,8 C 61 % 81 % 1018,7 hPa 0,0 l/m 3,6 km/h (1 Bft) SW 220 0 min
21.08.2018 10:15 22,6 C 18,8 C 10,8 C 63 % 81 % 1018,7 hPa 0,0 l/m 3,0 km/h (1 Bft) S 185 0 min
21.08.2018 10:10 22,4 C 18,8 C 10,8 C 65 % 81 % 1018,7 hPa 0,0 l/m 3,6 km/h (1 Bft) O 80 0 min
21.08.2018 10:05 22,3 C 18,8 C 10,8 C 65 % 81 % 1018,7 hPa 0,0 l/m 0,6 km/h (0 Bft) W-NW 300 0 min
21.08.2018 10:00 22,1 C 18,8 C 10,8 C 66 % 81 % 1018,7 hPa 0,0 l/m 3,6 km/h (1 Bft) SO 125 0 min
21.08.2018 09:55 21,9 C 18,8 C 10,8 C 67 % 81 % 1018,7 hPa 0,0 l/m 6,1 km/h (2 Bft) SW 225 0 min
21.08.2018 09:50 22,0 C 18,8 C 10,8 C 67 % 81 % 1018,7 hPa 0,0 l/m 5,4 km/h (2 Bft) SO 130 0 min
21.08.2018 09:45 21,9 C 18,8 C 10,8 C 67 % 81 % 1018,7 hPa 0,0 l/m 5,4 km/h (2 Bft) O-SO 110 0 min
21.08.2018 09:40 21,7 C 18,8 C 10,8 C 68 % 81 % 1018,7 hPa 0,0 l/m 6,1 km/h (2 Bft) S-SO 155 1 min
21.08.2018 09:35 21,6 C 18,8 C 10,8 C 68 % 81 % 1017,7 hPa 0,0 l/m 6,7 km/h (2 Bft) S 175 4 min
21.08.2018 09:30 21,5 C 18,8 C 10,8 C 69 % 81 % 1017,7 hPa 0,0 l/m 5,4 km/h (2 Bft) SO 125 3 min
21.08.2018 09:25 21,2 C 18,8 C 10,8 C 70 % 81 % 1017,7 hPa 0,0 l/m 7,3 km/h (2 Bft) O-SO 110 0 min
21.08.2018 09:20 20,8 C 18,8 C 10,8 C 70 % 81 % 1017,7 hPa 0,0 l/m 8,5 km/h (2 Bft) SO 135 0 min
21.08.2018 09:15 20,8 C 18,8 C 10,8 C 70 % 81 % 1017,7 hPa 0,0 l/m 9,7 km/h (2 Bft) SO 130 0 min
21.08.2018 09:10 20,9 C 18,8 C 10,8 C 70 % 81 % 1017,7 hPa 0,0 l/m 7,3 km/h (2 Bft) SO 145 0 min
21.08.2018 09:05 20,8 C 18,8 C 10,8 C 71 % 81 % 1017,7 hPa 0,0 l/m 7,9 km/h (2 Bft) O-SO 105 0 min
21.08.2018 09:00 20,8 C 18,8 C 10,8 C 71 % 81 % 1017,7 hPa 0,0 l/m 7,3 km/h (2 Bft) O-SO 110 0 min
21.08.2018 08:55 20,6 C 18,8 C 10,8 C 71 % 81 % 1017,7 hPa 0,0 l/m 6,7 km/h (2 Bft) O-SO 105 0 min
21.08.2018 08:50 20,5 C 18,8 C 10,8 C 72 % 81 % 1018,7 hPa 0,0 l/m 8,5 km/h (2 Bft) O 90 0 min
21.08.2018 08:45 20,4 C 18,8 C 10,8 C 73 % 81 % 1018,7 hPa 0,0 l/m 1,2 km/h (1 Bft) NO 45 0 min
21.08.2018 08:40 20,2 C 18,8 C 10,8 C 73 % 81 % 1018,7 hPa 0,0 l/m 2,4 km/h (1 Bft) O-NO 60 0 min
21.08.2018 08:35 20,1 C 18,8 C 10,8 C 74 % 81 % 1017,7 hPa 0,0 l/m 3,0 km/h (1 Bft) SO 135 0 min
21.08.2018 08:30 20,0 C 18,8 C 10,8 C 74 % 81 % 1017,7 hPa 0,0 l/m 3,0 km/h (1 Bft) O 90 0 min
21.08.2018 08:25 19,8 C 18,8 C 10,8 C 75 % 81 % 1017,7 hPa 0,0 l/m 3,6 km/h (1 Bft) S 175 0 min
21.08.2018 08:20 19,8 C 18,8 C 10,8 C 75 % 81 % 1018,7 hPa 0,0 l/m 0,6 km/h (0 Bft) NO 45 0 min
21.08.2018 08:15 19,7 C 18,8 C 10,8 C 75 % 81 % 1018,7 hPa 0,0 l/m 3,6 km/h (1 Bft) SO 140 0 min
21.08.2018 08:10 19,6 C 18,8 C 10,8 C 75 % 81 % 1018,7 hPa 0,0 l/m 1,2 km/h (1 Bft) NO 50 0 min
21.08.2018 08:05 19,6 C 18,8 C 10,8 C 75 % 81 % 1017,7 hPa 0,0 l/m 2,4 km/h (1 Bft) O 100 0 min
21.08.2018 08:00 19,5 C 18,8 C 10,8 C 75 % 81 % 1017,7 hPa 0,0 l/m 0,0 km/h (0 Bft) O-SO 115 0 min
21.08.2018 07:55 19,5 C 18,8 C 10,8 C 75 % 81 % 1017,7 hPa 0,0 l/m 1,2 km/h (1 Bft) O 80 0 min
21.08.2018 07:50 19,5 C 18,8 C 10,8 C 75 % 81 % 1017,7 hPa 0,0 l/m 1,2 km/h (1 Bft) S-SO 160 0 min
21.08.2018 07:45 19,5 C 18,8 C 10,8 C 75 % 81 % 1017,7 hPa 0,0 l/m 0,0 km/h (0 Bft) SW 220 0 min
21.08.2018 07:40 19,5 C 18,8 C 10,8 C 75 % 81 % 1017,7 hPa 0,0 l/m 0,0 km/h (0 Bft) NO 55 0 min
21.08.2018 07:35 19,5 C 18,8 C 10,8 C 75 % 81 % 1017,7 hPa 0,0 l/m 2,4 km/h (1 Bft) NO 35 0 min
21.08.2018 07:30 19,4 C 18,8 C 10,8 C 75 % 81 % 1017,7 hPa 0,0 l/m 2,4 km/h (1 Bft) NO 50 0 min
21.08.2018 07:25 19,4 C 18,8 C 10,8 C 75 % 81 % 1017,7 hPa 0,0 l/m 2,4 km/h (1 Bft) SO 130 0 min
21.08.2018 07:20 19,4 C 18,8 C 10,8 C 75 % 81 % 1017,7 hPa 0,0 l/m 3,0 km/h (1 Bft) O 80 0 min
21.08.2018 07:15 19,4 C 18,8 C 10,8 C 75 % 81 % 1017,7 hPa 0,0 l/m 1,2 km/h (1 Bft) O 80 0 min
21.08.2018 07:10 19,4 C 18,8 C 10,8 C 75 % 81 % 1017,7 hPa 0,0 l/m 2,4 km/h (1 Bft) O-NO 65 0 min
21.08.2018 07:05 19,4 C 18,8 C 10,8 C 75 % 81 % 1017,7 hPa 0,0 l/m 2,4 km/h (1 Bft) O-SO 115 0 min
21.08.2018 07:00 19,4 C 18,8 C 10,8 C 75 % 81 % 1017,7 hPa 0,0 l/m 2,4 km/h (1 Bft) SO 145 0 min
21.08.2018 06:55 19,4 C 18,8 C 10,8 C 75 % 81 % 1017,7 hPa 0,0 l/m 3,6 km/h (1 Bft) SW 215 0 min
21.08.2018 06:50 19,4 C 18,8 C 10,8 C 75 % 81 % 1017,7 hPa 0,0 l/m 4,8 km/h (1 Bft) SO 130 0 min
21.08.2018 06:45 19,4 C 18,8 C 10,8 C 75 % 81 % 1017,7 hPa 0,0 l/m 3,0 km/h (1 Bft) O-NO 60 0 min
21.08.2018 06:40 19,3 C 18,8 C 10,8 C 75 % 81 % 1017,7 hPa 0,0 l/m 6,1 km/h (2 Bft) O-SO 110 0 min
21.08.2018 06:35 19,3 C 18,8 C 10,8 C 75 % 81 % 1018,7 hPa 0,0 l/m 0,6 km/h (0 Bft) O 100 0 min
21.08.2018 06:30 19,2 C 18,8 C 10,8 C 76 % 81 % 1018,7 hPa 0,0 l/m 1,2 km/h (1 Bft) O-NO 60 0 min
21.08.2018 06:25 19,2 C 18,8 C 10,8 C 76 % 81 % 1018,7 hPa 0,0 l/m 2,4 km/h (1 Bft) O-SO 110 0 min
21.08.2018 06:20 19,2 C 18,8 C 10,8 C 76 % 81 % 1017,7 hPa 0,0 l/m 0,0 km/h (0 Bft) NO 50 0 min
21.08.2018 06:15 19,2 C 18,8 C 10,8 C 76 % 81 % 1017,7 hPa 0,0 l/m 0,0 km/h (0 Bft) W-SW 245 0 min
21.08.2018 06:10 19,2 C 18,8 C 10,8 C 76 % 81 % 1017,7 hPa 0,0 l/m 0,0 km/h (0 Bft) W-SW 245 0 min
21.08.2018 06:05 19,3 C 18,8 C 10,8 C 76 % 81 % 1017,7 hPa 0,0 l/m 0,0 km/h (0 Bft) O 100 0 min
21.08.2018 06:00 19,3 C 18,8 C 10,8 C 75 % 81 % 1017,7 hPa 0,0 l/m 2,4 km/h (1 Bft) O 95 0 min
21.08.2018 05:55 19,3 C 18,8 C 10,8 C 75 % 81 % 1017,7 hPa 0,0 l/m 0,6 km/h (0 Bft) N-NW 330 0 min
21.08.2018 05:50 19,3 C 18,8 C 10,8 C 75 % 81 % 1017,7 hPa 0,0 l/m 2,4 km/h (1 Bft) N 0 0 min
21.08.2018 05:45 19,3 C 18,8 C 10,8 C 75 % 81 % 1017,7 hPa 0,0 l/m 0,0 km/h (0 Bft) N 0 0 min
21.08.2018 05:40 19,3 C 18,8 C 10,8 C 75 % 81 % 1017,7 hPa 0,0 l/m 0,0 km/h (0 Bft) NW 305 0 min
21.08.2018 05:35 19,4 C 18,8 C 10,8 C 75 % 81 % 1017,7 hPa 0,0 l/m 2,4 km/h (1 Bft) N 0 0 min
21.08.2018 05:30 19,4 C 18,8 C 10,8 C 75 % 81 % 1017,7 hPa 0,0 l/m 2,4 km/h (1 Bft) N-NO 20 0 min
21.08.2018 05:25 19,4 C 18,8 C 10,8 C 75 % 81 % 1017,7 hPa 0,0 l/m 0,0 km/h (0 Bft) NO 35 0 min
21.08.2018 05:20 19,5 C 18,8 C 10,8 C 75 % 81 % 1017,7 hPa 0,0 l/m 0,0 km/h (0 Bft) NW 325 0 min
21.08.2018 05:15 19,5 C 18,8 C 10,8 C 74 % 81 % 1017,7 hPa 0,0 l/m 0,0 km/h (0 Bft) NW 315 0 min
21.08.2018 05:10 19,5 C 18,8 C 10,8 C 74 % 81 % 1017,7 hPa 0,0 l/m 1,2 km/h (1 Bft) N-NW 335 0 min
21.08.2018 05:05 19,5 C 18,8 C 10,8 C 74 % 81 % 1017,7 hPa 0,0 l/m 0,6 km/h (0 Bft) N-NW 345 0 min
21.08.2018 05:00 19,6 C 18,8 C 10,8 C 74 % 81 % 1017,7 hPa 0,0 l/m 2,4 km/h (1 Bft) N 5 0 min
21.08.2018 04:55 19,5 C 18,8 C 10,8 C 74 % 81 % 1017,7 hPa 0,0 l/m 3,0 km/h (1 Bft) N-NO 20 0 min
21.08.2018 04:50 19,5 C 18,8 C 10,8 C 74 % 81 % 1017,7 hPa 0,0 l/m 1,8 km/h (1 Bft) NO 35 0 min
21.08.2018 04:45 19,5 C 18,8 C 10,8 C 74 % 81 % 1017,7 hPa 0,0 l/m 2,4 km/h (1 Bft) O-NO 60 0 min
21.08.2018 04:40 19,5 C 18,8 C 10,8 C 74 % 81 % 1017,7 hPa 0,0 l/m 0,0 km/h (0 Bft) N-NO 30 0 min
21.08.2018 04:35 19,5 C 18,8 C 10,8 C 74 % 81 % 1018,7 hPa 0,0 l/m 1,2 km/h (1 Bft) N-NO 30 0 min
21.08.2018 04:30 19,6 C 18,8 C 10,8 C 74 % 81 % 1018,7 hPa 0,0 l/m 0,6 km/h (0 Bft) N-NW 345 0 min
21.08.2018 04:25 19,6 C 18,8 C 10,8 C 74 % 81 % 1018,7 hPa 0,0 l/m 1,2 km/h (1 Bft) N-NW 345 0 min
21.08.2018 04:20 19,6 C 18,8 C 10,8 C 74 % 81 % 1018,7 hPa 0,0 l/m 0,0 km/h (0 Bft) NW 325 0 min
21.08.2018 04:15 19,6 C 18,8 C 10,8 C 74 % 81 % 1018,7 hPa 0,0 l/m 0,0 km/h (0 Bft) W 280 0 min
21.08.2018 04:10 19,7 C 18,8 C 10,8 C 74 % 81 % 1018,7 hPa 0,0 l/m 0,0 km/h (0 Bft) W 280 0 min
21.08.2018 04:05 19,8 C 18,8 C 10,8 C 73 % 81 % 1017,7 hPa 0,0 l/m 1,2 km/h (1 Bft) NW 320 0 min
21.08.2018 04:00 19,8 C 18,8 C 10,8 C 73 % 81 % 1017,7 hPa 0,0 l/m 0,0 km/h (0 Bft) N 355 0 min
21.08.2018 03:55 19,8 C 18,8 C 10,8 C 73 % 81 % 1017,7 hPa 0,0 l/m 0,0 km/h (0 Bft) N 355 0 min
21.08.2018 03:50 19,8 C 18,8 C 10,8 C 73 % 81 % 1017,7 hPa 0,0 l/m 0,0 km/h (0 Bft) O-NO 70 0 min
21.08.2018 03:45 19,8 C 18,8 C 10,8 C 72 % 81 % 1017,7 hPa 0,0 l/m 0,0 km/h (0 Bft) O 90 0 min
21.08.2018 03:40 19,8 C 18,8 C 10,8 C 72 % 81 % 1017,7 hPa 0,0 l/m 0,0 km/h (0 Bft) S 185 0 min
21.08.2018 03:35 19,8 C 18,8 C 10,8 C 72 % 81 % 1017,7 hPa 0,0 l/m 1,8 km/h (1 Bft) O-SO 120 0 min
21.08.2018 03:30 19,9 C 18,8 C 10,8 C 72 % 81 % 1017,7 hPa 0,0 l/m 0,0 km/h (0 Bft) SW 220 0 min
21.08.2018 03:25 20,0 C 18,8 C 10,8 C 72 % 81 % 1017,7 hPa 0,0 l/m 1,2 km/h (1 Bft) NO 50 0 min
21.08.2018 03:20 20,1 C 18,8 C 10,8 C 71 % 81 % 1017,7 hPa 0,0 l/m 1,2 km/h (1 Bft) SO 125 0 min
21.08.2018 03:15 20,1 C 18,8 C 10,8 C 71 % 81 % 1017,7 hPa 0,0 l/m 1,2 km/h (1 Bft) NO 45 0 min
21.08.2018 03:10 20,1 C 18,8 C 10,8 C 71 % 81 % 1017,7 hPa 0,0 l/m 1,8 km/h (1 Bft) SO 135 0 min
21.08.2018 03:05 20,1 C 18,8 C 10,8 C 71 % 81 % 1018,7 hPa 0,0 l/m 0,0 km/h (0 Bft) S-SW 210 0 min
21.08.2018 03:00 20,1 C 18,8 C 10,8 C 71 % 81 % 1018,7 hPa 0,0 l/m 3,6 km/h (1 Bft) NO 35 0 min
21.08.2018 02:55 20,1 C 18,8 C 10,8 C 71 % 81 % 1018,7 hPa 0,0 l/m 1,2 km/h (1 Bft) NO 55 0 min
21.08.2018 02:50 20,1 C 18,8 C 10,8 C 71 % 81 % 1017,7 hPa 0,0 l/m 0,6 km/h (0 Bft) O-NO 60 0 min
21.08.2018 02:45 20,1 C 18,8 C 10,8 C 71 % 81 % 1017,7 hPa 0,0 l/m 0,0 km/h (0 Bft) O-NO 70 0 min
21.08.2018 02:40 20,2 C 18,8 C 10,8 C 71 % 81 % 1017,7 hPa 0,0 l/m 0,6 km/h (0 Bft) SO 135 0 min
21.08.2018 02:35 20,2 C 18,8 C 10,8 C 71 % 81 % 1017,7 hPa 0,0 l/m 3,6 km/h (1 Bft) O-NO 65 0 min
21.08.2018 02:30 20,3 C 18,8 C 10,8 C 70 % 81 % 1017,7 hPa 0,0 l/m 0,6 km/h (0 Bft) N 0 0 min
21.08.2018 02:25 20,3 C 18,8 C 10,8 C 70 % 81 % 1017,7 hPa 0,0 l/m 4,2 km/h (1 Bft) N 10 0 min
21.08.2018 02:20 20,4 C 18,8 C 10,8 C 70 % 81 % 1017,7 hPa 0,0 l/m 8,5 km/h (2 Bft) N-NO 25 0 min
21.08.2018 02:15 20,3 C 18,8 C 10,8 C 70 % 81 % 1017,7 hPa 0,0 l/m 6,1 km/h (2 Bft) N 0 0 min
21.08.2018 02:10 20,2 C 18,8 C 10,8 C 71 % 81 % 1017,7 hPa 0,0 l/m 4,2 km/h (1 Bft) N-NO 20 0 min
21.08.2018 02:05 20,1 C 18,8 C 10,8 C 71 % 81 % 1017,7 hPa 0,0 l/m 1,2 km/h (1 Bft) N 0 0 min
21.08.2018 02:00 20,1 C 18,8 C 10,8 C 72 % 81 % 1017,7 hPa 0,0 l/m 0,6 km/h (0 Bft) N-NO 25 0 min
21.08.2018 01:55 20,1 C 18,8 C 10,8 C 72 % 81 % 1017,7 hPa 0,0 l/m 0,0 km/h (0 Bft) O-NO 65 0 min
21.08.2018 01:50 20,1 C 18,8 C 10,8 C 72 % 81 % 1017,7 hPa 0,0 l/m 0,0 km/h (0 Bft) N-NO 25 0 min
21.08.2018 01:45 20,1 C 18,8 C 10,8 C 71 % 81 % 1017,7 hPa 0,0 l/m 0,0 km/h (0 Bft) NO 50 0 min
21.08.2018 01:40 20,1 C 18,8 C 10,8 C 71 % 81 % 1017,7 hPa 0,0 l/m 0,0 km/h (0 Bft) SO 135 0 min
21.08.2018 01:35 20,2 C 18,8 C 10,8 C 71 % 81 % 1017,7 hPa 0,0 l/m 0,0 km/h (0 Bft) SO 130 0 min
21.08.2018 01:30 20,2 C 18,8 C 10,8 C 71 % 81 % 1017,7 hPa 0,0 l/m 0,0 km/h (0 Bft) S 175 0 min
21.08.2018 01:25 20,4 C 18,8 C 10,8 C 70 % 81 % 1017,7 hPa 0,0 l/m 0,0 km/h (0 Bft) SO 125 0 min
21.08.2018 01:20 20,4 C 18,8 C 10,8 C 70 % 81 % 1017,7 hPa 0,0 l/m 0,0 km/h (0 Bft) S 170 0 min
21.08.2018 01:15 20,5 C 18,8 C 10,8 C 70 % 81 % 1017,7 hPa 0,0 l/m 0,0 km/h (0 Bft) N-NO 30 0 min
21.08.2018 01:10 20,5 C 18,8 C 10,8 C 70 % 81 % 1017,7 hPa 0,0 l/m 1,8 km/h (1 Bft) NO 40 0 min
21.08.2018 01:05 20,6 C 18,8 C 10,8 C 69 % 81 % 1017,7 hPa 0,0 l/m 3,6 km/h (1 Bft) N 5 0 min
21.08.2018 01:00 20,6 C 18,8 C 10,8 C 69 % 81 % 1017,7 hPa 0,0 l/m 4,2 km/h (1 Bft) N-NW 330 0 min
21.08.2018 00:55 20,6 C 18,8 C 10,8 C 69 % 81 % 1017,7 hPa 0,0 l/m 4,2 km/h (1 Bft) N 355 0 min
21.08.2018 00:50 20,6 C 18,8 C 10,8 C 69 % 81 % 1017,7 hPa 0,0 l/m 4,2 km/h (1 Bft) N 355 0 min
21.08.2018 00:45 20,7 C 18,8 C 10,8 C 69 % 81 % 1017,7 hPa 0,0 l/m 2,4 km/h (1 Bft) N 350 0 min
21.08.2018 00:40 20,7 C 18,8 C 10,8 C 69 % 81 % 1017,7 hPa 0,0 l/m 3,0 km/h (1 Bft) N 0 0 min
21.08.2018 00:35 20,7 C 18,8 C 10,8 C 69 % 81 % 1017,7 hPa 0,0 l/m 3,6 km/h (1 Bft) N-NO 15 0 min
21.08.2018 00:30 20,7 C 18,8 C 10,8 C 69 % 81 % 1017,7 hPa 0,0 l/m 3,6 km/h (1 Bft) N-NO 25 0 min
21.08.2018 00:25 20,7 C 18,8 C 10,8 C 69 % 81 % 1017,7 hPa 0,0 l/m 4,8 km/h (1 Bft) N-NO 30 0 min
21.08.2018 00:20 20,7 C 18,8 C 10,8 C 69 % 81 % 1017,7 hPa 0,0 l/m 3,0 km/h (1 Bft) N 5 0 min
21.08.2018 00:15 20,8 C 18,8 C 10,8 C 69 % 81 % 1017,7 hPa 0,0 l/m 6,1 km/h (2 Bft) N 5 0 min
21.08.2018 00:10 20,8 C 18,8 C 10,8 C 69 % 81 % 1017,7 hPa 0,0 l/m 4,8 km/h (1 Bft) N-NO 25 0 min
21.08.2018 00:05 20,8 C 18,8 C 10,8 C 68 % 81 % 1017,7 hPa 0,0 l/m 4,2 km/h (1 Bft) N 10 0 min
21.08.2018 00:00 20,9 C 18,8 C 10,8 C 68 % 81 % 1017,7 hPa 0,0 l/m 6,7 km/h (2 Bft) N-NO 25 0 min
_ Min-Zeit 06:10 00:00 00:00 16:35 18:35 19:10 - 01:15 - - -
Minimum _ 19,2 C 18,8 C 10,8 C 35 % 47 % 1014,5 hPa - 0,0 km/h (0 Bft) - - -
_ Max-Zeit 16:30 18:40 00:00 06:05 00:00 02:55 00:00 15:50 - - 12:15
Maximum _ 29,0 C 29,2 C 10,8 C 76 % 81 % 1018,7 hPa 0,0 l/m 20,0 km/h
N-NW (4 Bft)
- - 7 min
Durchschnitt _ 23,1 C 19,5 C 10,8 C 59 % 79 % 1017,4 hPa #0,0 l/m 5,9 km/h (2 Bft) N-NO - #5:10 h